Regional Weather Roundup
Issued by NWS Newport/Morehead, NC

Current Version | Previous Version | Text Only | Print | Product List | Glossary On
Versions: 1 2 3 4 5 6 7 8 9 10 11 12 13 14 15 16 17 18 19 20 21 22 23 24 25 26 27 28 29 30 31 32 33 34 35 36 37 38 39 40 41 42 43 44 45 46 47 48 49 50
000 ASUS42 KMHX 310125 RWRMHX WEATHER ROUNDUP FOR EASTERN NORTH CAROLINA NATIONAL WEATHER SERVICE NEWPORT/MOREHEAD CITY NC 900 PM EDT MON MAY 30 2016 NOTE: "FAIR" INDICATES FEW OR NO CLOUDS BELOW 12,000 FEET WITH NO SIGNIFICANT WEATHER AND/OR OBSTRUCTIONS TO VISIBILITY NCZ015>017-031-032-045>047-102-103-310200- NORTH COAST CITY SKY/WX TMP DP RH WIND PRES REMARKS EDENTON CLOUDY N/A N/A N/A E3 29.96S ELIZABETH CITY CLOUDY 71 70 96 CALM 29.97F KITTY HAWK FOG 69 68 96 CALM 29.95S VSB 1/4 MANTEO NOT AVBL $$ NCZ045>047-081-094-103-104-310200- CENTRAL COAST CITY SKY/WX TMP DP RH WIND PRES REMARKS FRISCO CLOUDY 73 71 93 SE3 29.94F $$ NCZ095-097-098-100-101-310200- SOUTHERN COAST CITY SKY/WX TMP DP RH WIND PRES REMARKS BEAUFORT PTCLDY 74 71 91 CALM 29.93F CEDAR ISLAND NOT AVBL JACKSONVILLE CLOUDY 76 71 85 E6 29.92S PINEY ISLAND NOT AVBL WILMINGTON CLOUDY 74 72 93 E3 29.91S $$ NCZ011>013-027>030-043-044-078>080-089-090>093-098-310200- COASTAL PLAIN CITY SKY/WX TMP DP RH WIND PRES REMARKS AHOSKIE CLOUDY 72 70 94 CALM 29.96F CLINTON CLOUDY 73 73 100 N5 29.94R ELIZABETHTOWN CLOUDY 72 72 100 CALM 29.92S GOLDSBORO CLOUDY 74 74 100 NE5 29.93R GREENVILLE CLOUDY 73 72 94 CALM 29.97F HAVELOCK PTCLDY 75 71 87 NE6 29.95S KENANSVILLE MOCLDY 72 72 98 CALM 29.94S KINSTON CLOUDY 73 72 94 N5 29.95S NEW BERN PTCLDY 74 70 87 E3 29.95S RICHLANDS CLEAR 73 72 96 E3 29.93S ROCKY MOUNT CLOUDY 73 70 90 CALM 29.95F WASHINGTON PTCLDY 71 69 95 CALM 29.95S WHITEVILLE CLOUDY 73 70 89 E3 29.91R $$ AMZ130-135-150-152-154-156-158-170-250-252-270-ANZ085-086-088-633-658-670-310200- MARINE OBSERVATIONS STATION/POSITION TIME TEMP WIND PRES WAVE SWELL AIR SEA DIR/SP/G HT/PER HT/PER (UTC) (F) (DEG/KT/KT) (MB) (FT/S) (FT/S) CHESAPEAKE LIGHT 0100 69 170/ 8/ 8 1015.8 64 E VA BEACH 0050 66 63 50/ 4/ 6 1015.3 6/ 7 7/ 7 DUCK 0100 59 1014.0 2 E DUCK 0011 62 N/A 4/ 8 OREGON INLET 0100 74 1014.3 13E OREGON INLT 0100 71 N/A 5/ 7 HATTERAS CG 0100 74 1013.1 DIAMOND BUOY 0050 75 81 210/ 6/ 8 1013.7 5/ 7 5/ 7 CAPE LOOKOUT 0100 74 70/ 4/ 4 1013.2 BEAUFORT LAB 0100 76 1012.8 30 SE NEW RVR IN 0025 76 N/A 6/ 6 27 SE WRIGHTSVLE 0108 75 76 150/ 8/ 12 1013.2 5 SE WRIGHTSVLE 0108 77 77 110/ 6/ 10 1013.5 225 S CAPE HAT 0050 76 76 170/ 10/ 12 1015.2 6/ 8 5/ 8 41 SE CHARLESTON 0050 75 77 240/ 12/ 14 1011.3 4/ 8 3/ 8 $$

USA.gov is the U.S. government's official web portal to all federal, state and local government web resources and services.